Flippin, AR

3:58 AM CST on February 21, 2017 (GMT -0600)
Marion County Regional

Weather History for KFLP - November, 2011

Change the Weather History Date:

Friday, November 11, 2011

  Actual Average Record
Temperature  
Mean Temperature 44 °F -  
Max Temperature 60 °F 59 °F 78 °F (2010)
Min Temperature 28 °F 39 °F 28 °F (2011)
Degree Days  
Heating Degree Days 21    
Moisture  
Dew Point 26 °F    
Average Humidity 70    
Maximum Humidity 86    
Minimum Humidity 25    
Precipitation  
Precipitation 0.00 in - - ()
Sea Level Pressure  
Sea Level Pressure 30.03 in    
Wind  
Wind Speed 4 mph (SSW)    
Max Wind Speed 22 mph    
Max Gust Speed 30 mph    
Visibility 10 miles    
Events      
Averages and records for this station are not official NWS values.
T = Trace of Precipitation, MM = Missing Value Source: NWS Daily Summary

Daily Weather History Graph

Daily Weather History Graph

Search for Another Location

Airport or City:

Trip Planner

Search our weather history database for the weather conditions in past years. The results will help you decide how hot, cold, wet, or windy it might be!

Date:

Astronomy

Nov. 11, 2011 Rise Set
Actual Time 6:43 AM CST 5:05 PM CST
Civil Twilight 6:15 AM CST 5:32 PM CST
Nautical Twilight 5:45 AM CST 6:03 PM CST
Astronomical Twilight 5:14 AM CST 6:33 PM CST
Moon 5:37 PM CST (11/11) 7:29 AM CST (11/11)
Length of Visible Light 11h 16m
Length of Day
10h 22m
Full, 99% of the Moon is Illuminated
Nov 11
Full
Nov 18
Last Quarter
Nov 25
New
Dec 2
First Quarter
Dec 10
Full

Hourly Weather History & Observations

Time (CST) Temp. Windchill Dew Point Humidity Pressure Visibility Wind Dir Wind Speed Gust Speed Precip Events Conditions
12:15 AM 33.8 °F - 26.6 °F 75% 30.16 in 10.0 mi Calm Calm - N/A   Clear
12:35 AM 32.0 °F - 26.6 °F 80% 30.15 in 10.0 mi Calm Calm - N/A   Clear
12:55 AM 32.0 °F - 26.6 °F 80% 30.15 in 10.0 mi Calm Calm - N/A   Clear
1:15 AM 30.2 °F - 26.6 °F 86% 30.15 in 10.0 mi Calm Calm - N/A   Clear
1:35 AM 32.0 °F - 26.6 °F 80% 30.15 in 10.0 mi Calm Calm - N/A   Clear
1:55 AM 30.2 °F - 26.6 °F 86% 30.15 in 10.0 mi Calm Calm - N/A   Clear
2:15 AM 30.2 °F - 26.6 °F 86% 30.15 in 10.0 mi Calm Calm - N/A   Clear
2:35 AM 30.2 °F - 24.8 °F 80% 30.15 in 10.0 mi Calm Calm - N/A   Clear
2:55 AM 30.2 °F - 24.8 °F 80% 30.14 in 10.0 mi Calm Calm - N/A   Clear
3:15 AM 30.2 °F - 24.8 °F 80% 30.13 in 10.0 mi Calm Calm - N/A   Clear
3:35 AM 30.2 °F - 24.8 °F 80% 30.13 in 9.0 mi Calm Calm - N/A   Clear
3:55 AM 30.2 °F - 24.8 °F 80% 30.12 in 10.0 mi Calm Calm - N/A   Clear
4:15 AM 30.2 °F - 24.8 °F 80% 30.12 in 10.0 mi Calm Calm - N/A   Clear
4:35 AM 28.4 °F - 24.8 °F 86% 30.11 in 10.0 mi Calm Calm - N/A   Clear
5:15 AM 28.4 °F - 24.8 °F 86% 30.10 in 10.0 mi Calm Calm - N/A   Clear
5:35 AM 28.4 °F - 24.8 °F 86% 30.10 in 10.0 mi Calm Calm - N/A   Clear
5:55 AM 28.4 °F 24.6 °F 24.8 °F 86% 30.09 in 10.0 mi SSE 3.5 mph - N/A   Clear
6:15 AM 28.4 °F - 24.8 °F 86% 30.08 in 10.0 mi Calm Calm - N/A   Clear
6:35 AM 28.4 °F 23.3 °F 24.8 °F 86% 30.08 in 10.0 mi East 4.6 mph - N/A   Clear
6:55 AM 28.4 °F 23.3 °F 24.8 °F 86% 30.08 in 10.0 mi East 4.6 mph - N/A   Clear
7:55 AM - - - N/A% 30.07 in 10.0 mi Calm Calm - N/A   Clear
8:15 AM 37.4 °F - 30.2 °F 75% 30.07 in 10.0 mi Calm Calm - N/A   Clear
8:35 AM - - - N/A% 30.06 in 10.0 mi Calm Calm - N/A   Clear
8:55 AM - - - N/A% 30.05 in 10.0 mi SSW 4.6 mph - N/A   Clear
9:35 AM - - - N/A% 30.04 in 10.0 mi WSW 12.7 mph 18.4 mph N/A   Clear
9:55 AM - - - N/A% 30.03 in 10.0 mi SW 12.7 mph 18.4 mph N/A   Clear
10:15 AM - - - N/A% 30.03 in 10.0 mi SW 12.7 mph 23.0 mph N/A   Clear
10:35 AM - - - N/A% 30.03 in 10.0 mi WSW 15.0 mph 23.0 mph N/A   Clear
10:55 AM - - - N/A% 30.03 in 10.0 mi WSW 17.3 mph 23.0 mph N/A   Clear
11:15 AM - - - N/A% 30.02 in 10.0 mi WSW 18.4 mph 25.3 mph N/A   Clear
11:35 AM - - - N/A% 30.01 in 10.0 mi SW 11.5 mph - N/A   Clear
11:55 AM - - - N/A% 30.00 in 10.0 mi WSW 17.3 mph 23.0 mph N/A   Clear
12:35 PM - - - N/A% 29.97 in 10.0 mi SW 10.4 mph 23.0 mph N/A   Clear
12:55 PM - - - N/A% 29.96 in 10.0 mi SW 17.3 mph 21.9 mph N/A   Clear
1:15 PM - - - N/A% 29.95 in 10.0 mi WSW 21.9 mph 29.9 mph N/A   Clear
1:35 PM - - - N/A% 29.95 in 10.0 mi WSW 20.7 mph 25.3 mph N/A   Clear
1:55 PM - - - N/A% 29.95 in 10.0 mi SW 13.8 mph 21.9 mph N/A   Clear
2:15 PM - - - N/A% 29.95 in 10.0 mi SSW 15.0 mph 20.7 mph N/A   Clear
2:55 PM - - - N/A% 29.96 in 10.0 mi SW 12.7 mph 20.7 mph N/A   Clear
3:15 PM - - - N/A% 29.95 in 10.0 mi SW 9.2 mph 20.7 mph N/A   Clear
3:35 PM - - - N/A% 29.94 in 10.0 mi SW 10.4 mph 17.3 mph N/A   Clear
3:55 PM - - - N/A% 29.94 in 10.0 mi SSW 10.4 mph 18.4 mph N/A   Clear
4:35 PM - - - N/A% 29.94 in 10.0 mi SSW 11.5 mph 21.9 mph N/A   Clear
4:55 PM - - - N/A% 29.94 in 10.0 mi SSW 10.4 mph 18.4 mph N/A   Clear
5:15 PM - - - N/A% 29.94 in 10.0 mi SSW 5.8 mph - N/A   Clear
5:35 PM 60.8 °F - 24.8 °F 25% 29.95 in 10.0 mi South 4.6 mph - N/A   Clear
5:55 PM - - - N/A% 29.95 in 10.0 mi SSW 5.8 mph - N/A   Clear
6:35 PM - - - N/A% 29.95 in 10.0 mi SSW 5.8 mph - N/A   Clear
6:55 PM - - - N/A% 29.96 in 10.0 mi South 3.5 mph - N/A   Clear
7:15 PM - - - N/A% 29.95 in 10.0 mi Calm Calm - N/A   Clear
7:55 PM - - - N/A% 29.95 in 10.0 mi SSW 3.5 mph - N/A   Clear
8:15 PM - - - N/A% 29.95 in 10.0 mi SSW 5.8 mph - N/A   Clear
8:55 PM - - - N/A% 29.96 in 10.0 mi SSW 4.6 mph - N/A   Clear
9:15 PM 53.6 °F - 24.8 °F 33% 29.96 in 10.0 mi SSW 5.8 mph - N/A   Clear
9:35 PM 53.6 °F - 24.8 °F 33% 29.96 in 10.0 mi SSW 6.9 mph - N/A   Clear
9:55 PM 53.6 °F - 26.6 °F 35% 29.96 in 10.0 mi SSW 6.9 mph - N/A   Clear
10:15 PM 53.6 °F - 26.6 °F 35% 29.96 in 10.0 mi SSW 5.8 mph - N/A   Clear
10:35 PM 53.6 °F - 24.8 °F 33% 29.97 in 10.0 mi South 3.5 mph - N/A   Clear
10:55 PM 53.6 °F - 24.8 °F 33% 29.97 in 10.0 mi Calm Calm - N/A   Clear
11:15 PM - - - N/A% 29.96 in 10.0 mi South 3.5 mph - N/A   Clear
11:55 PM - - - N/A% 29.96 in 10.0 mi SSW 5.8 mph - N/A   Clear